User: anonymous   Login
Location: Chiroubles
(46.1812°N, 4.6660°E)
Time: 07:38:08
(UTC+00:00)
Language:

Cosmos 1470 Rocket - Orbit

View from above orbital plane
View from above orbital plane
View from above satellite
View from above satellite

Ground track
Ground track

The orbit data is extracted from the following two-line orbital elements,

1 14148U 83061B   20299.80516773 +.00000086 +00000-0 +76018-5 0  9996
2 14148 082.5220 200.6231 0020108 248.4039 172.1393 14.83350058995549
Epoch (UTC): 25 October 2020 19:19:26
Eccentricity: 0.0020108
inclination: 82.5220°
perigee height: 605 km
apogee height: 633 km
right ascension of ascending node: 200.6231°
argument of perigee: 248.4039°
revolutions per day: 14.83350058
mean anomaly at epoch: 172.1393°
orbit number at epoch: 99554

The dashed part of the orbit path shows where the satellite is in the earth's shadow,  

DLR